Location: Cronhütte
(48.9135°N, 9.6869°E)
Time: 07:21:30
(UTC+00:00)

Cosmos 2150 - Visible Passes

Search period start: 07 October 2024 00:00
Search period end: 17 October 2024 00:00
Orbit: 772 x 795 km, 74.0° (Epoch: 06 October)

Date Brightness Start Highest point End Pass type
(mag) Time Alt. Az. Time Alt. Az. Time Alt. Az.
07 Oct 6.9 17:22:36 10° NNE 17:24:59 13° NE 17:27:22 10° ENE visible
07 Oct 5.0 19:03:23 10° NNW 19:08:37 58° ENE 19:08:44 58° ENE visible
07 Oct 7.2 20:46:33 10° NW 20:49:21 21° WNW 20:49:21 21° WNW visible
08 Oct 5.5 18:31:14 10° NNW 18:36:13 41° ENE 18:37:19 36° E visible
08 Oct 6.5 20:13:51 10° NW 20:17:56 32° W 20:17:56 32° W visible
09 Oct 5.9 17:59:08 10° N 18:03:46 29° NE 18:05:58 22° E visible
09 Oct 5.7 19:41:19 10° NNW 19:46:24 49° WSW 19:46:35 49° WSW visible
10 Oct 6.3 17:27:09 10° N 17:31:13 22° NE 17:34:42 12° E visible
10 Oct 5.1 19:08:55 10° NNW 19:14:12 72° WSW 19:15:19 54° S visible
10 Oct 7.8 20:54:34 10° W 20:55:36 11° W 20:55:57 10° W visible
11 Oct 4.9 18:36:37 10° NNW 18:41:56 79° ENE 18:44:09 36° SSE visible
11 Oct 7.4 20:20:27 10° WNW 20:23:39 16° W 20:24:47 15° WSW visible
12 Oct 5.1 18:04:23 10° NNW 18:09:36 55° ENE 18:13:05 20° SE visible
12 Oct 7.0 19:47:28 10° NW 19:51:38 24° W 19:53:44 19° SW visible
13 Oct 5.5 17:32:14 10° N 17:37:11 39° ENE 17:42:07 10° SE visible
13 Oct 6.4 19:14:46 10° NW 19:19:33 35° WSW 19:22:51 18° SSW visible
14 Oct 6.0 17:00:09 10° N 17:04:42 28° NE 17:09:15 10° ESE visible
14 Oct 5.8 18:42:16 10° NNW 18:47:24 52° WSW 18:52:12 12° S visible
15 Oct 5.2 18:09:53 10° NNW 18:15:11 77° WSW 18:20:28 10° SSE visible
15 Oct 7.9 19:54:59 10° WNW 19:56:37 11° W 19:58:16 10° WSW visible
16 Oct 5.0 17:37:35 10° NNW 17:42:53 75° ENE 17:48:11 10° SSE visible
16 Oct 7.6 19:21:16 10° NW 19:24:40 17° W 19:28:03 10° SW visible
